www.pogodaiklimat.ru

Погода и климат >> Архив погоды >> Россия >> Ленинградская область >> Лесогорский


ПОГОДА в Лесогорском

  • Прогноз погоды в Лесогорском
  • Монитор погоды в Лесогорском

АРХИВ ПОГОДЫ в Лесогорском

Время (UTC), дата Ветер
(напр.,м/с)
 
Видим.   Явления Облачность Т
(С)
Тd
(С)
f
(%)
Тe
(С)
Тes
(С)
Комфортность P
(гПа)
Po
(гПа)
Тmin
(С)
Tmax
(С)
R
(мм)
R24
(мм)
S
(см)
09 17.09 СЗ 2 20 км {дождь} 10/10 700 м
[Cb cap]
+9.5 +7.4 87 +8 +8 994.9 990.2
12 17.09 С 2 20 км {дождь} 9/9 700 м
[Cb cap]
+10.9 +6.5 74 +10 +10 995.5 990.8
15 17.09 В 1 10 км слаб. ливневой дождь 9/9 600 м
[Cb cap]
+8.8 +6.9 88 +8 +8 996.6 991.9 0.9
18 17.09 С 1 10 км местами туман поземный {ливн. осадки} 8/6 700 м
[Cb cap Ac trans]
+5.6 +5.0 96 +4 +4 997.5 992.7 +12.4 1
21 17.09 С 1 20 км 10/0
[Ac As]
+5.8 +5.4 97 +4 +4 998.1 993.3
00 18.09 С 2 20 км 10/0
[Ac As]
+6.5 +5.4 93 +4 +4 998.8 994.0
03 18.09 С 2 20 км 10/0
[Ac As]
+5.9 +4.7 92 +3 +3 1000.0 995.2 +4.3 0.7
06 18.09 С 2 20 км 3/3 600 м
[Cu med, cong]
+7.0 +5.0 87 +5 +6 1001.6 996.8 +4.3
09 18.09 С 2 50 км 8/4 600 м
[Cu hum Ac trans]
+9.3 +4.3 71 +8 +10 1003.3 998.5
12 18.09 С 1 4000 м слаб. ливневой дождь 8/8 700 м
[Cb cap]
+7.2 +5.3 88 +6 +7 1005.1 1000.3
15 18.09 С 2 20 км {ливн. осадки} 9/0
[Ac trans]
+8.2 +1.8 64 +7 +7 1006.4 1001.6 0.9
18 18.09 С 1 20 км {ливн. осадки} 6/0
[Ac trans]
+2.3 +1.2 92 +1 +1 1008.3 1003.4 +11.2 0.9
21 18.09 штиль 0 20 км ясно -0.8 -1.4 96 -2 -2 1009.7 1004.7
00 19.09 штиль 0 20 км ясно -2.1 -2.5 97 -3 -3 1010.7 1005.7
03 19.09 штиль 0 500 м туман ясно -2.7 -3.1 97 -4 -4 1011.4 1006.4 -3.1
06 19.09 штиль 0 50 км {туман} 8/0
[Ci]
+3.2 +2.7 97 +2 +3 1012.4 1007.5 -3.4
09 19.09 СЗ 1 50 км 8/5 600 м
[Cu hum Ci sp]
+9.1 -0.9 50 +9 +11 1013.0 1008.2
12 19.09 З 2 50 км 8/5 1000 м
[Cu med, cong Cc]
+10.8 -0.4 46 +10 +12 1012.7 1007.9
15 19.09 ЮЗ 2 20 км 9/0
[Ac As]
+9.4 +0.4 53 +8 +8 1012.4 1007.6
18 19.09 З 2 20 км 8/0
[Ac As]
+5.7 +2.3 79 +3 +3 1012.5 1007.6 +11.7
21 19.09 С 2 20 км {ливн. осадки} 9/0
[Ac As]
+4.7 +3.3 91 +2 +2 1013.1 1008.2
00 20.09 С 2 20 км {ливн. осадки} 9/0
[Ac As]
+3.3 +1.7 89 0 0 1014.3 1009.4
03 20.09 СЗ 1 20 км 1/0
[Ci fib]
+1.4 +0.6 94 -1 -1 1014.4 1009.4 +1.4 0.0
06 20.09 З 2 50 км 3/3 600 м
[Cu hum]
+4.0 +2.6 91 +1 +2 1014.5 1009.6 -1.2 0.0
09 20.09 СЗ 2 50 км 6/6 930 м
[Cu hum]
+9.5 +2.6 62 +8 +10 1014.5 1009.7
12 20.09 СЗ 4 50 км 8/8 840 м
[Cu med, cong]
+10.6 -2.1 41 +9 +9 1014.1 1009.3
15 20.09 З 1 20 км 8/8 800 м
[Cu hum]
+8.9 -0.2 53 +9 +9 1013.6 1008.8
18 20.09 З 1 20 км 5/0
[Ac As]
+3.3 -0.2 78 +2 +2 1013.2 1008.3 +10.8
21 20.09 штиль 0 20 км 3/0
[Ac trans]
-1.4 -2.0 96 -3 -3 1013.0 1008.0
00 21.09 штиль 0 20 км ясно -2.5 -2.8 98 -4 -4 1011.7 1006.7
03 21.09 штиль 0 50 км дымка ясно -1.1 -1.5 97 -2 -2 1010.2 1005.2 -2.6
06 21.09 штиль 0 20 км 3/0
[Ac trans]
+2.2 +1.8 97 +1 +2 1009.1 1004.2 -2.6
09 21.09 С 1 20 км 9/5 870 м
[Cu hum Ac lent Cs]
+9.2 +2.5 63 +9 +11 1007.9 1003.1
12 21.09 В 1 20 км 10/8 750 м
[Cb cap Ac As]
+9.8 +1.4 56 +10 +10 1007.3 1002.5
15 21.09 С 2 20 км 10/0
[Ac As]
+8.3 +2.7 68 +7 +7 1006.9 1002.1
18 21.09 СЗ 1 20 км 10/0
[Ac As]
+4.9 +2.9 87 +4 +4 1007.0 1002.1 +10.7
21 21.09 СЗ 2 20 км ясно +4.1 +1.8 85 +1 +1 1007.0 1002.1
00 22.09 С 3 20 км ясно +4.5 +2.5 87 +1 +1 1007.9 1003.0
03 22.09 СЗ 2 20 км 3/0
[Ac trans]
+3.2 +2.0 92 0 0 1009.3 1004.4 +1.3
06 22.09 С 4 20 км 3/3 600 м
[Cu med, cong]
+4.3 +1.5 82 0 +1 1011.4 1006.5 +1.3
09 22.09 С 4 20 км 4/4 600 м
[Cu hum]
+7.0 +0.3 62 +4 +6 1013.2 1008.3
12 22.09 С 4 20 км 4/4 600 м
[Cu hum]
+8.2 -0.1 56 +5 +7 1014.6 1009.7
15 22.09 С 4 20 км 3/3 600 м
[Cu hum]
+5.9 -0.9 62 +2 +3 1016.6 1011.7
18 22.09 С 3 20 км 3/0
[Ac trans]
+3.5 -0.3 76 -0 -0 1018.0 1013.0 +8.5
21 22.09 СЗ 2 20 км ясно +2.7 +0.3 84 -0 -0 1018.9 1013.9
00 23.09 СЗ 2 20 км ясно +1.8 +0.1 88 -2 -2 1019.5 1014.5
03 23.09 СЗ 1 20 км ясно -0.2 -0.9 95 -2 -2 1019.7 1014.7 -0.3
06 23.09 СЗ 3 20 км ясно +4.1 +1.0 80 +1 +1 1019.6 1014.7 -0.3
09 23.09 СЗ 5
{10}
50 км 4/4 1000 м
[Cu hum]
+7.2 0.0 60 +4 +5 1019.7 1014.8
12 23.09 СЗ 4
{10}
50 км 8/8 800 м
[Cu med, cong]
+7.5 -1.4 53 +5 +5 1019.4 1014.5
15 23.09 С 3 20 км 9/9 800 м
[Sc diur, vesp]
+6.6 -1.5 56 +4 +4 1019.4 1014.5
18 23.09 СЗ 1 20 км 9/0
[Ac As]
+3.5 -1.1 72 +2 +2 1019.3 1014.3 +8.8
21 23.09 С 2 20 км 10/0
[Ac As]
+3.6 -2.5 64 +1 +1 1019.1 1014.1
00 24.09 штиль 0 20 км 10/0
[Ac As]
-1.0 -2.2 92 -2 -2 1019.0 1014.0
03 24.09 СЗ 2 20 км 10/0
[Ac As]
+3.5 -1.9 68 +1 +1 1018.9 1013.9 -2.0
06 24.09 СЗ 2 20 км 10/0
[Ac As]
+4.4 -3.0 59 +2 +2 1019.0 1014.1 -2.0

 

Местоположение метеостанции Лесогорский (Ленинградская область, Россия): широта 61.03 долгота 28.93 высота над уровнем моря 40 м.

В архиве по умолчанию представлена погода в Лесогорском за последнюю неделю. Архивные данные за месяц целиком и за предыдущие месяцы, начиная с января 2011 года, Вы можете получить, выбрав интересующий диапазон дат из раскрывающегося списка и нажав кнопку "Ввод!".


*Определитесь, кто Вы:
робот инопланетянин человек

Внимание! Время в таблицах - всемирное. Для получения местного времени необходимо прибавить поправку, которая равна 3 ч.

Смотрите также архив погоды в соседних городах и на ближайших метеорологических станциях:

Погода в Хиеккапакке (Финляндия) (31 км)
Погода в Выборге (Ленинградская область, Россия) (36 км)
Погода в Лаппеенранте (Финляндия) (39 км)
Погода в Лаппеенранта аэропорту (Финляндия) (42 км)
Погода в Париккала Коицанлахти (Финляндия) (54 км)
Погода в Пуумале (Финляндия) (67 км)
Погода в Лаукансаари (Финляндия) (88 км)
Погода в Коивуниеми (Финляндия) (88 км)
Погода в Озерках (Ленинградская область, Россия) (92 км)
Погода в Сосново (Ленинградская область, Россия) (92 км)

Пояснения к столбцам:

Ветер - указаны скорость ветра в м/с - средняя за 10 мин, порывы в срок и между сроками (в фигурных скобках) и направление, откуда дует ветер: С - северный, СВ - северо-восточный, В - восточный, ЮВ - юго-восточный, Ю - южный, ЮЗ - юго-западный, З - западный, СЗ - северо-западный.
Видимость - горизонтальная дальность видимости в метрах или километрах. При видимости от 1 до 10 км при отсутствии осадков обычно наблюдается дымка, при ухудшении видимости до 1 км и менее - туман. В сухую погоду видимость может ухудшаться дымом, пылью или мглою.
Явления - указаны атмосферные явления, наблюдавшиеся в срок или в последний час перед сроком; фигурными скобками обозначены явления, наблюдавшиеся между сроками (за 1-3 часа до срока); квадратными скобками обозначены град или гололедные отложения с указанием их диаметра в мм.
Облачность - указаны через наклонную черту общая и нижняя облачность в баллах и высота нижней границы облаков в метрах; квадратными скобками обозначены формы облаков: Ci - перистые, Cs - перисто-слоистые, Cc - перисто-кучевые, Ac - высококучевые, As - высокослоистые, Sc - слоисто-кучевые, Ns - слоисто-дождевые, Cu - кучевые, Cb - кучево-дождевые. Подробнее классификацию облаков см. в Атласе облаков (PDF).
T - Температура воздуха - температура, измеренная на высоте 2 м над землей.
Td - Температура точки росы - температура, при понижении до которой содержащийся в воздухе водяной пар достигнет насыщения.
f - Относительная влажность воздуха - влажноcть воздуха, измеренная на высоте 2 м над землей.
Te - Эффективная температура - температура, которую ощущает одетый по сезону человек в тени. Характеристика душности погоды. При расчете учитывается влияние влажности воздуха и скорости ветра на теплоощущения человека.
Tes - Эффективная температура на солнце - температура, которую ощущает человек, с поправкой на солнечный нагрев. Характеристика знойности погоды. Зависит от высоты солнца над горизонтом, облачности и скорости ветра. Ночью, в пасмурную погоду, а также при ветре 12 м/с и более поправка равна нулю.
P - Атмосферное давление - приведенное к уровню моря атмосферное давление.
Po - Атмосферное давление - измеренное на уровне метеостанции атмосферное давление.
Tmin - Минимальная температура - минимум температуры воздуха на высоте 2 м над землей.
Tmax - Максимальная температура - максимум температуры воздуха на высоте 2 м над землей.
R - Количество осадков - Количество выпавших осадков за период времени, мм. При наведении курсора мыши на число - период времени, за который выпало указанное количество осадков.
R24 - Количество осадков - Количество выпавших осадков за 24 часа, мм.
S - Снежный покров - Высота снежного покрова, см. При наведении курсора мыши на число - состояние снежного покрова и степень покрытия местности в баллах.